Upstream stations:
Downstream station:
SHEF ID: WETO2 North Canadian River near Wetumk
STATION TYPE:
Regulating: Stage = 14.00, Flow = 9630
PRECIP STAGE RIV-FLOW BAT-LOAD
in ft cfs volt
Ccp-Rev Ccp-Rev Ccp-Rev Ccp-Rev
(US/Central)
01/10 00:00 0.00 5.70 230 11.70
01/10 01:00 0.00 5.69 227 11.70
01/10 02:00 0.00 5.70 230 11.61
01/10 03:00 0.00 5.70 230 11.61
01/10 04:00 0.00 5.69 227 11.61
01/10 05:00 0.00 5.69 227 11.61
01/10 06:00 0.00 5.70 230 11.53
01/10 07:00 0.00 5.69 227 11.53
01/10 08:00 0.00 5.69 227 11.53
01/10 09:00 0.00 5.71 234 11.53
01/10 10:00 0.00 5.71 234 11.61
01/10 11:00 0.00 5.71 234 11.70
01/10 12:00 0.00 5.69 227 11.70
01/10 13:00 0.00 5.69 227 11.70
01/10 14:00 0.00 5.69 227 11.77
01/10 15:00 0.00 5.67 220 12.09
01/10 16:00 0.00 5.67 220 12.09
01/10 17:00 0.00 5.67 220 11.93
01/10 18:00 0.00 5.66 217 11.86
01/10 19:00 0.00 5.66 217 11.77
01/10 20:00 0.00 5.66 217 11.77
01/10 21:00 0.00 5.66 217 11.77
01/10 22:00 0.00 5.66 217 ----
01/10 23:00 0.00 5.67 220 11.70